Regional Weather Roundup
Issued by NWS

Home | Current Version | Previous Version | Graphics & Text | Print | Product List | Glossary On
Versions: 1 2 3 4 5 6 7 8 9 10 11 12 13 14 15 16 17 18 19 20 21 22 23 24 25 26 27
000
ASUS45 KSLC 210310
RWRUT

UTAH REGIONAL WEATHER ROUNDUP
NATIONAL WEATHER SERVICE SALT LAKE CITY UT
900 PM MDT THU JUL 20 2017

UTZ001>011-023>025-210400-

NORTHERN UTAH

CITY           SKY/WX    TMP DP  RH WIND       PRES   REMARKS
BRIGHAM CITY   MOCLDY    89  51  27 CALM      29.96R
DUGWAY         TSTM      86  57  37 NW12G18   30.00R
HILL AFB       PTCLDY    86  51  29 S18       30.01R
LOGAN          MOCLDY    82  60  47 N13       29.98R
OGDEN          MOCLDY    87  54  32 S9        29.96R
SALT LAKE CITY MOCLDY    88  53  30 S21G28    29.95R
TOOELE VALLEY  MOCLDY    86  52  30 S12       29.97R
WENDOVER       RAIN      87  62  43 SE7       29.95R
HEBER CITY     CLOUDY    77  45  31 S9G16     30.10R
WEST JORDAN    MOCLDY    84  60  44 S18G25    30.01S

$$

UTZ011>015-024>027-210400-

CENTRAL/NORTHEAST UTAH

CITY           SKY/WX    TMP DP  RH WIND       PRES   REMARKS
PROVO AIRPORT  MOCLDY    80  58  46 S6        30.03S
MOAB/CANYONLAN LGT RAIN  72  64  76 SW6       30.10R
DELTA          MOCLDY    82  48  30 S9        30.02S
PRICE          CLOUDY    74  53  48 CALM      30.15S
ROOSEVELT      CLOUDY    77  52  41 S5        30.12R
VERNAL         CLOUDY    80  52  37 S7        30.12R

$$

UTZ013>016-019>022-027-210400-

SOUTHERN UTAH

CITY           SKY/WX    TMP DP  RH WIND       PRES   REMARKS
BRYCE CANYON   PTCLDY    65  54  67 CALM      30.32R
CEDAR CITY     PTCLDY    78  47  33 S7        30.15R
MILFORD        PTCLDY    81  49  32 S14       30.06S
ST GEORGE      CLOUDY    94  49  21 W10       29.93S HX  90
HANKSVILLE     CLOUDY    75  59  57 SE14      30.11S
BLANDING       CLOUDY    74  53  48 NE10      30.25R

$$

REGIONAL REPORTS     COLORADO/ARIZONA

CITY           SKY/WX    TMP DP  RH WIND       PRES   REMARKS
CRAIG, CO      CLOUDY    74  44  34 S18G30    30.18R
GRAND JUNCTION MOCLDY    83  52  34 SW13      30.11R
RIFLE, CO      CLOUDY    74  55  51 SE7       30.17S
MONTROSE, CO   CLOUDY    75  52  44 S9        30.21R
CORTEZ, CO     RAIN      69  55  60 E22G29    30.19S
COLORADO CITY    N/A     84  50  30 NW5       30.13R
PAGE, AZ       CLOUDY    89  52  28 SW7       30.04R
GRAND CANYON   CLOUDY    68  56  65 NE5       30.30R
KINGMAN, AZ    CLEAR     83  60  45 SE16      30.02R
FLAGSTAFF, AZ  MOCLDY    63  54  72 NE9       30.34R

$$

REGIONAL REPORTS    NEVADA/IDAHO/WYOMING

CITY           SKY/WX    TMP DP  RH WIND       PRES   REMARKS
LAS VEGAS, NV  MOCLDY    97  53  22 S3        29.86S HX  94
ELY, NY        MOCLDY    66  62  87 W7        30.17R
ELKO, NV       CLEAR     85  19   9 NW6       30.06R
POCATELLO, ID  CLEAR     78  38  23 S9        30.01S
BURLEY, ID     CLEAR     70  51  51 SW8       30.00S
FORT BRIDGER,    N/A     77  47  33 W12       30.24R
EVANSTON, WY   CLOUDY    72  51  47 W9        30.22S
ROCK SPRINGS,  CLOUDY    74  50  42 N9        30.19R
KEMMERER, WY     N/A    N/A N/A N/A NW7       30.23R

$$




USA.gov is the U.S. government's official web portal to all federal, state and local government web resources and services.